SAT-51112

Operational
NORAD ID: 51112 Owner: SpaceX

关于 SAT-51112

正在加载描述...

实时位置

正在加载3D地球...

即将过境

高度历史

Altitude vs Time

uPlot chart will show altitude changes over time

两行轨道根数

1 25544U 98067A 24001.50000000 .00002182 00000-0 42575-4 0 9990
2 25544 51.6461 339.7939 0001397 83.2776 276.8615 15.48919103123456
Epoch: Jan 1, 2024 • Age: N/A

当前状态

Position data unavailable

大型星座

Loading constellations...